GW0564 Weather Reports


Display with metric or nautical units.
time (UTC)temp
F
wind
direction
speed
MPH
gust
MPH
rain 1hr
in
rain 24hr
in
rain mn
in
humidity
%
barometer
mb
20260906230050 80 360 2.0 10.0 0.00 0.00 0.00 27 1014.6
20260906225027 80 360 5.0 13.0 0.00 0.00 0.00 26 1014.7
20260906224557 80 360 5.0 18.0 0.00 0.00 0.00 28 1014.6
20260906224024 80 360 9.0 18.0 0.00 0.00 0.00 29 1014.5
20260906223524 80 360 5.0 13.0 0.00 0.00 0.00 28 1014.5
20260906221551 81 360 6.0 12.0 0.00 0.00 0.00 28 1014.8
20260906220524 81 360 4.0 18.0 0.00 0.00 0.00 28 1014.7
20260906220049 81 82 8.0 18.0 0.00 0.00 0.00 26 1014.9
20260906215527 81 80 10.0 18.0 0.00 0.00 0.00 27 1015.0
20260906215023 81 75 7.0 16.0 0.00 0.00 0.00 28 1015.2
20260906214024 81 360 10.0 22.0 0.00 0.00 0.00 27 1015.2
20260906213524 81 360 10.0 19.0 0.00 0.00 0.00 26 1015.1
20260906212523 82 87 14.0 21.0 0.00 0.00 0.00 26 1015.2
20260906212023 83 87 11.0 20.0 0.00 0.00 0.00 27 1015.3
20260906211552 83 83 8.0 20.0 0.00 0.00 0.00 26 1015.4
20260906211023 83 62 12.0 20.0 0.00 0.00 0.00 27 1015.4
20260906210058 82 69 9.0 20.0 0.00 0.00 0.00 27 1015.3
20260906204546 82 72 9.0 18.0 0.00 0.00 0.00 27 1015.4
20260906204023 83 72 11.0 21.0 0.00 0.00 0.00 26 1015.6
20260906203524 82 55 12.0 23.0 0.00 0.00 0.00 24 1015.5
20260906203050 82 71 10.0 23.0 0.00 0.00 0.00 25 1015.6
20260906201550 82 71 6.0 16.0 0.00 0.00 0.00 25 1015.7
20260906200051 82 67 10.0 19.0 0.00 0.00 0.00 26 1015.8
20260906195023 82 132 8.0 21.0 0.00 0.00 0.00 24 1015.8
20260906194553 81 360 13.0 21.0 0.00 0.00 0.00 27 1015.8
20260906194020 80 69 12.0 25.0 0.00 0.00 0.00 27 1016.0
20260906193045 79 360 16.0 22.0 0.00 0.00 0.00 31 1016.0
20260906191547 79 360 15.0 21.0 0.00 0.00 0.00 32 1016.4
20260906190045 78 360 12.0 18.0 0.00 0.00 0.00 32 1016.7
20260906185523 77 360 11.0 19.0 0.00 0.00 0.00 33 1016.8
20260906185025 76 360 10.0 19.0 0.00 0.00 0.00 35 1016.9
20260906184552 76 360 10.0 17.0 0.00 0.00 0.00 36 1017.2
20260906184021 75 61 9.0 16.0 0.00 0.00 0.00 36 1017.4
20260906183045 75 51 11.0 17.0 0.00 0.00 0.00 37 1017.7
20260906181555 74 61 11.0 16.0 0.00 0.00 0.00 37 1018.0
20260906180051 73 360 6.0 13.0 0.00 0.00 0.00 37 1018.4
20260906175024 72 360 9.0 13.0 0.00 0.00 0.00 35 1018.8
20260906174554 71 360 7.0 11.0 0.00 0.00 0.00 37 1018.8
20260906174023 71 360 7.0 11.0 0.00 0.00 0.00 37 1018.9
20260906173523 71 360 6.0 11.0 0.00 0.00 0.00 38 1019.1
20260906173101 71 360 6.0 10.0 0.00 0.00 0.00 39 1019.2
20260906172520 70 360 5.0 10.0 0.00 0.00 0.00 40 1019.2
20260906171558 69 360 5.0 11.0 0.00 0.00 0.00 40 1019.3
20260906170050 70 360 2.0 10.0 0.00 0.00 0.00 39 1019.5
20260906164546 69 360 1.0 6.0 0.00 0.00 0.00 39 1019.6
20260906164024 69 360 2.0 6.0 0.00 0.00 0.00 39 1019.7
20260906163523 67 360 1.0 3.0 0.00 0.00 0.00 40 1019.6
20260906163051 67 0 0.0 3.0 0.00 0.00 0.00 40 1019.6
20260906162524 66 268 0.0 4.0 0.00 0.00 0.00 40 1019.7
20260906161549 66 259 1.0 4.0 0.00 0.00 0.00 41 1019.7
20260906160044 64 0 0.0 5.0 0.00 0.00 0.00 43 1020.0
20260906155523 64 0 1.0 6.0 0.00 0.00 0.00 43 1020.0
20260906155025 63 360 2.0 8.0 0.00 0.00 0.00 43 1020.0
20260906154556 63 360 3.0 8.0 0.00 0.00 0.00 44 1020.2
20260906154021 63 360 1.0 6.0 0.00 0.00 0.00 43 1020.2
20260906153051 62 360 2.0 6.0 0.00 0.00 0.00 46 1020.2
20260906151545 60 360 2.0 5.0 0.00 0.00 0.00 48 1020.3
20260906150043 59 360 2.0 4.0 0.00 0.00 0.00 50 1020.5
20260906145523 59 360 0.0 3.0 0.00 0.00 0.00 50 1020.6
20260906145025 58 0 0.0 2.0 0.00 0.00 0.00 50 1020.7
20260906144554 58 0 0.0 0.0 0.00 0.00 0.00 51 1020.8
20260906144023 58 0 0.0 0.0 0.00 0.00 0.00 51 1020.8
20260906143521 57 0 0.0 0.0 0.00 0.00 0.00 50 1020.8
20260906143107 57 0 0.0 0.0 0.00 0.00 0.00 49 1020.8
20260906141554 56 0 0.0 0.0 0.00 0.00 0.00 51 1020.9
20260906140047 56 0 0.0 0.0 0.00 0.00 0.00 52 1020.8
20260906134544 54 0 0.0 0.0 0.00 0.00 0.00 54 1020.8
20260906133520 54 0 0.0 0.0 0.00 0.00 0.00 54 1020.8
20260906133058 54 0 0.0 0.0 0.00 0.00 0.00 54 1020.8
20260906131556 52 146 0.0 5.0 0.00 0.00 0.00 56 1020.8
20260906130050 50 0 0.0 0.0 0.00 0.00 0.00 59 1020.7
20260906124544 51 0 0.0 0.0 0.00 0.00 0.00 57 1020.8
20260906124024 52 0 0.0 0.0 0.00 0.00 0.00 55 1020.7
20260906123524 52 0 0.0 0.0 0.00 0.00 0.00 56 1020.8
20260906123051 52 0 0.0 0.0 0.00 0.00 0.00 55 1020.7
20260906122521 52 0 0.0 0.0 0.00 0.00 0.00 55 1020.8
20260906121550 53 0 0.0 0.0 0.00 0.00 0.00 55 1020.8
20260906121020 53 0 0.0 0.0 0.00 0.00 0.00 55 1020.8
20260906120043 53 0 0.0 0.0 0.00 0.00 0.00 55 1020.8
20260906115523 53 0 0.0 0.0 0.00 0.00 0.00 54 1020.8
20260906115024 53 0 0.0 0.0 0.00 0.00 0.00 54 1020.9
20260906114551 53 0 0.0 0.0 0.00 0.00 0.00 55 1020.9
20260906114026 54 0 0.0 0.0 0.00 0.00 0.00 54 1020.9
20260906113520 54 0 0.0 0.0 0.00 0.00 0.00 53 1020.8
20260906113051 55 0 0.0 0.0 0.00 0.00 0.00 52 1020.8
20260906112520 55 0 0.0 1.0 0.00 0.00 0.00 53 1020.7
20260906111549 55 0 0.0 0.0 0.00 0.00 0.00 53 1020.8
20260906110042 55 0 0.0 0.0 0.00 0.00 0.00 53 1020.7
20260906104540 55 0 0.0 0.0 0.00 0.00 0.00 53 1020.7
20260906104023 55 0 0.0 0.0 0.00 0.00 0.00 53 1020.7
20260906103522 55 0 0.0 0.0 0.00 0.00 0.00 53 1020.7
20260906103053 55 0 0.0 0.0 0.00 0.00 0.00 53 1020.7
20260906102021 55 0 1.0 3.0 0.00 0.00 0.00 52 1020.5
20260906101549 55 0 0.0 0.0 0.00 0.00 0.00 53 1020.4
20260906100043 56 0 0.0 3.0 0.00 0.00 0.00 51 1020.5
20260906095023 56 360 0.0 3.0 0.00 0.00 0.00 51 1020.4
20260906094554 56 0 0.0 3.0 0.00 0.00 0.00 51 1020.4
20260906094021 55 0 0.0 3.0 0.00 0.00 0.00 52 1020.4
20260906093521 55 0 0.0 3.0 0.00 0.00 0.00 52 1020.4
20260906093044 55 0 1.0 3.0 0.00 0.00 0.00 52 1020.4
20260906091543 57 0 0.0 1.0 0.00 0.00 0.00 49 1020.5
20260906091023 57 0 0.0 1.0 0.00 0.00 0.00 49 1020.3
20260906090524 57 0 0.0 1.0 0.00 0.00 0.00 50 1020.2
20260906090051 57 0 0.0 2.0 0.00 0.00 0.00 50 1020.2
20260906085521 57 0 0.0 3.0 0.00 0.00 0.00 49 1020.2
20260906084550 57 0 0.0 8.0 0.00 0.00 0.00 49 1020.0
20260906083049 58 0 0.0 2.0 0.00 0.00 0.00 50 1020.3
20260906081543 59 0 0.0 7.0 0.00 0.00 0.00 47 1020.1
20260906081023 59 215 1.0 6.0 0.00 0.00 0.00 47 1020.5
20260906080524 60 0 1.0 6.0 0.00 0.00 0.00 47 1020.9
20260906080051 59 0 0.0 2.0 0.00 0.00 0.00 47 1020.9
20260906074550 58 0 0.0 3.0 0.00 0.00 0.00 48 1021.0
20260906073044 59 0 0.0 0.0 0.00 0.00 0.00 48 1020.6
20260906072023 59 0 0.0 0.0 0.00 0.00 0.00 47 1020.6
20260906071559 59 0 0.0 1.0 0.00 0.00 0.00 47 1020.7
20260906071024 59 0 0.0 1.0 0.00 0.00 0.00 47 1020.8
20260906070523 59 0 0.0 0.0 0.00 0.00 0.00 48 1020.6
20260906070047 59 0 0.0 2.0 0.00 0.00 0.00 47 1020.6
20260906064543 59 0 2.0 5.0 0.00 0.00 0.00 47 1020.5
20260906063523 59 360 0.0 3.0 0.00 0.00 0.00 48 1020.5
20260906063040 58 0 0.0 1.0 0.00 0.00 0.00 48 1020.6
20260906062520 58 0 0.0 0.0 0.00 0.00 0.00 48 1020.6
20260906062021 58 0 0.0 0.0 0.00 0.00 0.00 47 1020.6
20260906061551 58 0 0.0 0.0 0.00 0.00 0.00 46 1020.6
20260906060045 59 0 0.0 0.0 0.00 0.00 0.00 46 1020.5
20260906054542 60 0 0.0 3.0 0.00 0.00 0.00 45 1020.5
20260906054024 60 0 0.0 3.0 0.00 0.00 0.00 45 1020.5
20260906053523 59 360 0.0 3.0 0.00 0.00 0.00 46 1020.4
20260906053049 60 0 0.0 3.0 0.00 0.00 0.00 45 1020.3
20260906052521 60 360 0.0 3.0 0.00 0.00 0.00 45 1020.4
20260906052022 60 0 0.0 1.0 0.00 0.00 0.00 45 1020.4
20260906051553 60 360 0.0 1.0 0.00 0.00 0.00 45 1020.4
20260906050110 61 0 0.0 1.0 0.00 0.00 0.00 43 1020.5
20260906044540 62 0 0.0 1.0 0.00 0.00 0.00 43 1020.3
20260906044026 62 0 0.0 2.0 0.00 0.00 0.00 42 1020.2
20260906043524 62 0 0.0 2.0 0.00 0.00 0.00 43 1020.3
20260906043101 63 0 0.0 1.0 0.00 0.00 0.00 42 1020.2
20260906041546 64 0 0.0 1.0 0.00 0.00 0.00 41 1020.2
20260906040046 64 360 0.0 3.0 0.00 0.00 0.00 40 1020.1
20260906035521 64 360 0.0 4.0 0.00 0.00 0.00 40 1020.2
20260906035023 64 360 0.0 5.0 0.00 0.00 0.00 40 1020.1
20260906034550 64 360 3.0 5.0 0.00 0.00 0.00 39 1020.2
20260906033048 64 360 2.0 6.0 0.00 0.00 0.00 40 1020.0
20260906031546 65 0 0.0 6.0 0.00 0.00 0.00 39 1019.9
20260906030040 65 360 4.0 8.0 0.00 0.00 0.00 40 1019.8
20260906025523 65 360 3.0 5.0 0.00 0.00 0.00 40 1019.7
20260906025021 65 360 2.0 4.0 0.00 0.00 0.00 39 1019.7
20260906024548 66 360 2.0 4.0 0.00 0.00 0.00 39 1019.5
20260906024034 66 360 1.0 8.0 0.00 0.00 0.00 38 1019.5
20260906023053 67 360 4.0 8.0 0.00 0.00 0.00 38 1019.3
20260906021606 68 360 2.0 5.0 0.00 0.00 0.00 37 1019.3
20260906020100 70 360 3.0 5.0 0.00 0.00 0.00 35 1019.2
20260906015521 71 360 1.0 8.0 0.00 0.00 0.00 34 1019.1
20260906015021 71 360 2.0 8.0 0.00 0.00 0.00 34 1018.9
20260906014550 71 360 2.0 8.0 0.00 0.00 0.00 33 1018.9
20260906013051 73 360 1.0 9.0 0.00 0.00 0.00 33 1019.1
20260906012524 73 360 3.0 9.0 0.00 0.00 0.00 33 1019.1
20260906012023 73 360 1.0 9.0 0.00 0.00 0.00 33 1019.0
20260906011552 73 360 4.0 9.0 0.00 0.00 0.00 32 1018.9
20260906011023 73 360 2.0 6.0 0.00 0.00 0.00 32 1018.9
20260906010050 74 360 2.0 10.0 0.00 0.00 0.00 32 1019.1
20260906004546 75 360 2.0 10.0 0.00 0.00 0.00 31 1018.8
20260906003527 76 360 5.0 12.0 0.00 0.00 0.00 30 1018.7
20260906003041 76 360 6.0 14.0 0.00 0.00 0.00 30 1018.7
20260906002525 77 96 4.0 14.0 0.00 0.00 0.00 30 1018.7
20260906001551 76 52 7.0 13.0 0.00 0.00 0.00 30 1018.7
20260906000049 77 360 7.0 16.0 0.00 0.00 0.00 29 1018.6
20260905234553 77 360 7.0 15.0 0.00 0.00 0.00 29 1018.7
20260905234023 77 360 9.0 17.0 0.00 0.00 0.00 29 1018.7
20260905233519 77 360 11.0 17.0 0.00 0.00 0.00 29 1018.7
20260905233050 77 62 8.0 14.0 0.00 0.00 0.00 29 1018.6
20260905232021 78 67 8.0 18.0 0.00 0.00 0.00 29 1018.6
20260905231550 78 61 7.0 20.0 0.00 0.00 0.00 29 1018.6